Content
SEND FEEDBACK

Daily
Averages
Monthly
Summary
United States of America

ENDERLIN, NORTH DAKOTA


Home > North America > United States > North Dakota
Elevation: 1120 feet     Latitude: 46 37N     Longitude: 097 36W

WEATHER
 
SELECT A DAY
Number of Records: 71,201;   Date Range: 12/15/10 - 11/21/14
 
SHARE

PRINT THIS DATA

[ ← Previous Day ]
WEATHER ALMANAC - FEBRUARY 13, 2013
[ Next Day → ]
[ °C ]   °F
Weather ElementAverageHighLow
Temperature26.8 °F30.2 °F (12:55 am)19.4 °F (10:35 pm)
Dewpoint26 °F30.2 °F (12:15 pm)19.4 °F (10:35 pm)
Humidity97.2 %100 % (3:15 am)86 % (12:55 am)
Barometer29.65 in29.76 in (11:35 pm)29.55 in (1:55 pm)
Wind Speed8.7 mph16.1 mph (3:55 am)
Weather ElementAverage
Visibility5.9 mi
Wind DirectionSSW (193.2 °)

Weather ElementTotal
Precipitation6.09 in
Heating Degree Days40.2 (Base 65)
Averaged from 69 records on February 13, 2013
WEATHER CONDITIONS BREAKOUT
WIND DIRECTION BREAKOUT
WEATHER BY HOUR - FEBRUARY 13, 2013
[ °C ]   °F
Local TimeTemperatureDewpointHumidityBarometerVisibilityWind DirectionWind SpeedGust SpeedPrecipitationEventsConditions
12:35 AM28.4 °F26.6 °F93 %29.73 in10.0 miWSW (250°)11.5 mphOvercast
12:55 AM30.2 °F26.6 °F86 %29.72 in10.0 miWest (260°)11.5 mphOvercast
1:15 AM28.4 °F26.6 °F93 %29.72 in10.0 miWSW (250°)11.5 mphOvercast
1:35 AM30.2 °F26.6 °F86 %29.72 in10.0 miWest (260°)15.0 mphOvercast
1:55 AM30.2 °F26.6 °F86 %29.71 in10.0 miWest (260°)13.8 mphOvercast
2:15 AM28.4 °F26.6 °F93 %29.71 in10.0 miWest (260°)13.8 mphMostly Cloudy
2:35 AM26.6 °F24.8 °F93 %29.71 in10.0 miWest (260°)13.8 mphClear
2:55 AM26.6 °F24.8 °F93 %29.70 in10.0 miWest (260°)15.0 mphClear
3:15 AM24.8 °F24.8 °F100 %29.70 in10.0 miWest (270°)15.0 mphClear
3:35 AM24.8 °F24.8 °F100 %29.69 in10.0 miWest (270°)15.0 mphClear
3:55 AM24.8 °F23.0 °F93 %29.69 in10.0 miWest (270°)16.1 mphClear
4:15 AM24.8 °F23.0 °F93 %29.68 in10.0 miWest (280°)15.0 mphScattered Clouds
4:35 AM24.8 °F23.0 °F93 %29.67 in10.0 miWest (270°)15.0 mphMostly Cloudy
4:55 AM26.6 °F23.0 °F86 %29.66 in10.0 miWest (270°)15.0 mphMostly Cloudy
5:15 AM24.8 °F23.0 °F93 %29.66 in10.0 miWest (270°)12.7 mphOvercast
5:35 AM24.8 °F23.0 °F93 %29.66 in10.0 miWest (280°)11.5 mphOvercast
6:15 AM24.8 °F23.0 °F93 %29.65 in10.0 miWest (280°)6.9 mphMostly Cloudy
6:35 AM24.8 °F23.0 °F93 %29.65 in10.0 miNW (310°)6.9 mphMostly Cloudy
6:55 AM23.0 °F23.0 °F100 %29.65 in10.0 miWest (270°)8.1 mphOvercast
7:15 AM24.8 °F23.0 °F93 %29.64 in10.0 miWNW (300°)5.8 mphOvercast
7:35 AM24.8 °F23.0 °F93 %29.64 in10.0 miWest (270°)12.7 mphOvercast
7:55 AM24.8 °F23.0 °F93 %29.63 in10.0 miWest (270°)9.2 mphOvercast
8:35 AM26.6 °F24.8 °F93 %29.63 in10.0 miWest (280°)6.9 mphOvercast
8:55 AM26.6 °F24.8 °F93 %29.63 in10.0 miWest (260°)6.9 mphMostly Cloudy
9:15 AM26.6 °F24.8 °F93 %29.62 in10.0 miWSW (250°)6.9 mphOvercast
9:35 AM26.6 °F26.6 °F100 %29.61 in9.0 miWSW (240°)9.2 mphMostly Cloudy
9:55 AM28.4 °F26.6 °F93 %29.61 in2.0 miWSW (240°)6.9 mph0.01 inSnowLight Snow
10:15 AM28.4 °F28.4 °F100 %29.61 in1.5 miSW (220°)3.5 mph0.05 inSnowLight Snow
10:35 AM28.4 °F28.4 °F100 %29.61 in1.5 miWSW (250°)4.6 mph0.12 inSnowLight Snow
10:55 AM28.4 °F28.4 °F100 %29.60 in1.0 miCalm0.22 inSnowLight Snow
11:15 AM28.4 °F28.4 °F100 %29.60 in0.8 miCalm0.17 inSnowLight Snow
11:35 AM28.4 °F28.4 °F100 %29.59 in0.8 miCalm0.46 inSnowLight Snow
11:55 AM28.4 °F28.4 °F100 %29.58 in0.5 miCalm0.69 inSnowSnow
12:15 PM30.2 °F30.2 °F100 %29.57 in0.8 miCalm0.15 inSnowLight Snow
12:35 PM30.2 °F30.2 °F100 %29.57 in0.8 miCalm0.38 inSnowLight Snow
12:55 PM30.2 °F30.2 °F100 %29.56 in0.8 miNE (40°)3.5 mph0.57 inSnowLight Snow
1:15 PM30.2 °F30.2 °F100 %29.56 in0.8 miNNE (20°)3.5 mph0.16 inSnowLight Snow
1:35 PM30.2 °F30.2 °F100 %29.56 in1.0 miNE (40°)4.6 mph0.37 inSnowLight Snow
1:55 PM30.2 °F30.2 °F100 %29.55 in1.5 miNE (40°)5.8 mph0.44 inSnowLight Snow
2:15 PM30.2 °F30.2 °F100 %29.55 in2.0 miNNE (20°)6.9 mph0.03 inSnowLight Snow
2:35 PM30.2 °F30.2 °F100 %29.55 in1.5 miNNE (30°)6.9 mph0.08 inSnowLight Snow
2:55 PM30.2 °F30.2 °F100 %29.55 in1.2 miNNE (20°)5.8 mph0.13 inSnowLight Snow
3:15 PM30.2 °F30.2 °F100 %29.56 in1.2 miNNE (20°)5.8 mph0.04 inSnowLight Snow
3:35 PM30.2 °F30.2 °F100 %29.57 in0.8 miNorth (10°)6.9 mph0.17 inSnowLight Snow
3:55 PM30.2 °F30.2 °F100 %29.58 in0.8 miNorth (10°)5.8 mph0.34 inSnowLight Snow
4:15 PM30.2 °F30.2 °F100 %29.58 in0.8 miNorth (360°)8.1 mph0.09 inSnowLight Snow
4:35 PM30.2 °F30.2 °F100 %29.59 in0.8 miNorth (360°)10.4 mph0.20 inSnowLight Snow
4:55 PM28.4 °F28.4 °F100 %29.60 in0.8 miNNE (20°)10.4 mph0.31 inSnowLight Snow
5:15 PM28.4 °F28.4 °F100 %29.61 in1.0 miNNE (20°)9.2 mph0.04 inSnowLight Snow
5:35 PM28.4 °F28.4 °F100 %29.62 in1.0 miNorth (10°)8.1 mph0.11 inSnowLight Snow
5:55 PM28.4 °F28.4 °F100 %29.63 in0.8 miNorth (10°)6.9 mph0.23 inSnowLight Snow
6:15 PM26.6 °F26.6 °F100 %29.64 in0.8 miNorth (10°)10.4 mph0.09 inSnowLight Snow
6:35 PM26.6 °F26.6 °F100 %29.65 in1.8 miNorth (10°)8.1 mph0.14 inSnowLight Snow
6:55 PM26.6 °F26.6 °F100 %29.66 in3.0 miNorth (10°)10.4 mph0.17 inSnowLight Snow
7:15 PM26.6 °F26.6 °F100 %29.67 in3.0 miNorth (10°)10.4 mph0.01 inSnowLight Snow
7:35 PM26.6 °F26.6 °F100 %29.69 in3.0 miNorth (350°)8.1 mph0.02 inSnowLight Snow
7:55 PM26.6 °F26.6 °F100 %29.69 in4.0 miNNW (340°)9.2 mph0.02 inSnowLight Snow
8:15 PM26.6 °F26.6 °F100 %29.70 in8.0 miNorth (350°)11.5 mphRainLight Rain
8:35 PM26.6 °F26.6 °F100 %29.71 in10.0 miNNW (340°)11.5 mphOvercast
8:55 PM24.8 °F24.8 °F100 %29.71 in10.0 miNorth (350°)9.2 mphOvercast
9:15 PM23.0 °F23.0 °F100 %29.72 in10.0 miNNW (330°)10.4 mphOvercast
9:35 PM21.2 °F21.2 °F100 %29.73 in10.0 miNW (310°)8.1 mphSnowLight Snow
9:55 PM23.0 °F23.0 °F100 %29.74 in10.0 miNW (320°)10.4 mph0.01 inSnowLight Snow
10:15 PM23.0 °F21.2 °F93 %29.74 in10.0 miNW (320°)8.1 mphSnowLight Snow
10:35 PM19.4 °F19.4 °F100 %29.75 in10.0 miNW (310°)10.4 mph0.01 inSnowLight Snow
10:55 PM19.4 °F19.4 °F100 %29.75 in10.0 miNW (310°)11.5 mph0.02 inSnowLight Snow
11:15 PM19.4 °F19.4 °F100 %29.75 in10.0 miNW (310°)9.2 mphSnowLight Snow
11:35 PM21.2 °F21.2 °F100 %29.76 in6.0 miNW (320°)10.4 mph0.01 inSnowLight Snow
11:55 PM21.2 °F21.2 °F100 %29.76 in5.0 miNW (320°)11.5 mph0.03 inSnowLight Snow
Hourly data recorded from KBAC, located miles away from Enderlin, North Dakota







STORIES FROM OUR PARTNERS